Date String (YYYY-MM-DD hh:mm:ss) UTC,Instrument flags,Ambient pressure (hPa),Sample flow (lpm),Bypass flow (lpm),Sample temperature (°C),Ambient temperature (°C),ASC tube jacket temperature (°C),LED temperature (°C),Box temperature (°C),Sample RH (%),Span deviation,Mass concentration (μg/m³),Mass concentration (μg/m³),Mass concentration (μg/m³)
DateTimeUTC,F1_M11,P_M11,Q1_M11,Q2_M11,T1_M11,T2_M11,T3_M11,T4_M11,T5_M11,U1_M11,ZSPAN_M11,X0_M11,X2_M11,X1_M11
2022-03-25 08:00:00,,0829.0,5.00,0.00,27.6,26.6,00.0,36.6,29.4,15.1,0000.0,0006.70,0002.80,0001.23
2022-03-25 08:01:00,,0829.1,5.00,0.00,27.6,26.6,00.0,36.6,29.3,15.1,0000.0,0006.65,0002.79,0001.22
2022-03-25 08:02:00,,0829.1,4.98,0.00,27.6,26.6,00.0,36.6,29.3,15.1,0000.0,0007.33,0002.88,0001.23
2022-03-25 08:03:00,,0829.1,5.00,0.00,27.6,26.6,00.0,36.6,29.3,15.1,0000.0,0008.16,0002.94,0001.22
2022-03-25 08:04:00,,0829.1,5.01,0.00,27.5,26.6,00.0,36.6,29.3,15.1,0000.0,0008.03,0002.89,0001.22
2022-03-25 08:05:00,,0829.1,4.99,0.00,27.5,26.6,00.0,36.6,29.3,15.0,0000.0,0007.88,0002.83,0001.22
2022-03-25 08:06:00,,0829.1,4.99,0.00,27.5,26.6,00.0,36.6,29.3,15.0,0000.0,0007.92,0002.88,0001.23
2022-03-25 08:07:00,,0829.1,5.01,0.00,27.5,26.6,00.0,36.6,29.3,15.0,0000.0,0007.93,0002.88,0001.25
2022-03-25 08:08:00,,0829.2,5.02,0.00,27.5,26.6,00.0,36.6,29.3,14.9,0000.0,0008.11,0002.81,0001.25
2022-03-25 08:09:00,,0829.2,4.99,0.00,27.5,26.6,00.0,36.6,29.3,14.9,0000.0,0008.29,0002.76,0001.26
2022-03-25 08:10:00,,0829.2,4.99,0.00,27.5,26.5,00.0,36.5,29.3,14.9,0000.0,0008.29,0002.79,0001.26
2022-03-25 08:11:00,,0829.2,4.99,0.00,27.5,26.5,00.0,36.5,29.3,14.9,0000.0,0008.46,0002.79,0001.27
2022-03-25 08:12:00,,0829.2,5.01,0.00,27.5,26.5,00.0,36.5,29.2,14.9,0000.0,0008.42,0002.76,0001.26
2022-03-25 08:13:00,,0829.2,5.01,0.00,27.5,26.5,00.0,36.5,29.2,14.9,0000.0,0008.61,0002.82,0001.27
2022-03-25 08:14:00,,0829.2,4.99,0.00,27.5,26.5,00.0,36.5,29.2,14.9,0000.0,0008.24,0002.90,0001.29
2022-03-25 08:15:00,,0829.2,5.01,0.00,27.5,26.5,00.0,36.5,29.2,15.0,0000.0,0008.38,0002.91,0001.28
2022-03-25 08:16:00,,0829.2,5.00,0.00,27.4,26.5,00.0,36.5,29.2,15.0,0000.0,0008.78,0003.00,0001.30
2022-03-25 08:17:00,,0829.2,4.99,0.00,27.4,26.5,00.0,36.5,29.2,15.0,0000.0,0008.97,0003.09,0001.31
2022-03-25 08:18:00,,0829.2,5.00,0.00,27.4,26.5,00.0,36.5,29.2,15.0,0000.0,0008.97,0003.09,0001.29
2022-03-25 08:19:00,,0829.3,5.02,0.00,27.4,26.5,00.0,36.5,29.2,15.1,0000.0,0009.26,0003.17,0001.29
2022-03-25 08:20:00,,0829.4,4.99,0.00,27.4,26.5,00.0,36.5,29.2,15.0,0000.0,0008.74,0003.20,0001.29
2022-03-25 08:21:00,,0829.2,5.01,0.00,27.4,26.4,00.0,36.5,29.2,15.1,0000.0,0008.65,0003.21,0001.28
2022-03-25 08:22:00,,0829.2,5.00,0.00,27.4,26.4,00.0,36.4,29.1,15.1,0000.0,0008.49,0003.18,0001.27
2022-03-25 08:23:00,,0829.4,4.99,0.00,27.4,26.4,00.0,36.4,29.1,15.1,0000.0,0008.39,0003.17,0001.26
2022-03-25 08:24:00,,0829.5,5.00,0.00,27.4,26.4,00.0,36.4,29.1,15.2,0000.0,0008.41,0003.18,0001.26
2022-03-25 08:25:00,,0829.3,5.01,0.00,27.4,26.4,00.0,36.4,29.1,15.2,0000.0,0007.88,0003.13,0001.25
2022-03-25 08:26:00,,0829.3,5.02,0.00,27.4,26.4,00.0,36.4,29.1,15.1,0000.0,0007.58,0003.10,0001.25
2022-03-25 08:27:00,,0829.4,5.00,0.00,27.4,26.4,00.0,36.4,29.1,15.1,0000.0,0007.22,0003.05,0001.25
2022-03-25 08:28:00,,0829.4,4.99,0.00,27.4,26.4,00.0,36.4,29.1,15.0,0000.0,0006.96,0002.97,0001.23
2022-03-25 08:29:00,,0829.4,5.00,0.00,27.4,26.4,00.0,36.4,29.1,15.1,0000.0,0007.02,0002.99,0001.23
2022-03-25 08:30:00,,0829.5,5.01,0.00,27.4,26.4,00.0,36.4,29.1,15.1,0000.0,0006.64,0002.90,0001.22
2022-03-25 08:31:00,,0829.5,4.99,0.00,27.4,26.4,00.0,36.4,29.1,15.0,0000.0,0006.57,0002.87,0001.21
2022-03-25 08:32:00,,0829.5,5.00,0.00,27.3,26.4,00.0,36.4,29.1,15.0,0000.0,0006.55,0002.88,0001.22
2022-03-25 08:33:00,,0829.5,5.01,0.00,27.3,26.4,00.0,36.4,29.1,15.0,0000.0,0006.65,0002.93,0001.23
2022-03-25 08:34:00,,0829.5,5.00,0.00,27.3,26.4,00.0,36.4,29.0,15.0,0000.0,0006.71,0002.94,0001.22
2022-03-25 08:35:00,,0829.5,5.00,0.00,27.3,26.4,00.0,36.4,29.1,15.0,0000.0,0006.63,0002.94,0001.21
2022-03-25 08:36:00,,0829.5,4.99,0.00,27.3,26.3,00.0,36.3,29.0,15.0,0000.0,0006.90,0002.89,0001.22
2022-03-25 08:37:00,,0829.5,4.99,0.00,27.3,26.3,00.0,36.3,29.0,15.0,0000.0,0007.25,0002.84,0001.21
2022-03-25 08:38:00,,0829.5,5.01,0.00,27.3,26.3,00.0,36.3,29.0,15.0,0000.0,0007.28,0002.85,0001.21
2022-03-25 08:39:00,,0829.5,4.99,0.00,27.3,26.3,00.0,36.3,29.1,15.0,0000.0,0007.24,0002.84,0001.22
2022-03-25 08:40:00,,0829.5,4.99,0.00,27.3,26.3,00.0,36.3,29.0,14.9,0000.0,0007.79,0002.89,0001.24
2022-03-25 08:41:00,,0829.5,5.02,0.00,27.3,26.3,00.0,36.3,29.0,14.9,0000.0,0007.83,0002.89,0001.25
2022-03-25 08:42:00,,0829.5,5.00,0.00,27.3,26.3,00.0,36.3,29.0,14.9,0000.0,0007.71,0002.86,0001.27
2022-03-25 08:43:00,,0829.5,5.00,0.00,27.3,26.3,00.0,36.3,29.0,14.9,0000.0,0007.67,0002.83,0001.29
2022-03-25 08:44:00,,0829.5,4.99,0.00,27.3,26.3,00.0,36.3,29.0,14.9,0000.0,0007.78,0002.83,0001.30
2022-03-25 08:45:00,,0829.5,4.99,0.00,27.3,26.3,00.0,36.3,29.0,14.9,0000.0,0007.72,0002.79,0001.31
2022-03-25 08:46:00,,0829.5,5.00,0.00,27.3,26.3,00.0,36.3,29.0,14.9,0000.0,0007.74,0002.79,0001.32
2022-03-25 08:47:00,,0829.5,5.00,0.00,27.3,26.3,00.0,36.3,29.0,14.9,0000.0,0007.74,0002.90,0001.33
2022-03-25 08:48:00,,0829.5,5.00,0.00,27.3,26.3,00.0,36.3,29.0,14.9,0000.0,0007.53,0003.00,0001.36
2022-03-25 08:49:00,,0829.6,5.00,0.00,27.3,26.3,00.0,36.3,29.0,14.9,0000.0,0007.53,0003.01,0001.36
2022-03-25 08:50:00,,0829.5,5.00,0.00,27.2,26.3,00.0,36.3,29.0,14.9,0000.0,0008.15,0002.99,0001.34
2022-03-25 08:51:00,,0829.5,5.01,0.00,27.2,26.3,00.0,36.3,29.0,14.9,0000.0,0007.95,0002.93,0001.33
2022-03-25 08:52:00,,0829.5,5.01,0.00,27.2,26.2,00.0,36.2,29.0,14.9,0000.0,0007.73,0002.89,0001.33
2022-03-25 08:53:00,,0829.5,5.00,0.00,27.2,26.2,00.0,36.2,28.9,14.9,0000.0,0007.86,0002.95,0001.31
2022-03-25 08:54:00,,0829.5,5.00,0.00,27.2,26.2,00.0,36.2,29.0,14.9,0000.0,0007.96,0003.02,0001.29
2022-03-25 08:55:00,,0829.6,4.99,0.00,27.2,26.2,00.0,36.2,29.0,15.0,0000.0,0007.93,0003.10,0001.27
2022-03-25 08:56:00,,0829.6,5.01,0.00,27.2,26.2,00.0,36.2,29.0,15.0,0000.0,0008.02,0003.16,0001.29
2022-03-25 08:57:00,,0829.6,5.00,0.00,27.2,26.2,00.0,36.2,28.9,15.1,0000.0,0007.92,0003.13,0001.30
2022-03-25 08:58:00,,0829.6,5.00,0.00,27.2,26.2,00.0,36.2,28.9,15.0,0000.0,0007.88,0003.05,0001.28
2022-03-25 08:59:00,,0829.6,4.99,0.00,27.2,26.2,00.0,36.2,28.9,15.0,0000.0,0007.84,0003.00,0001.28
